Weather History for Olathe, KS

Change the Weather History Date:

Wednesday, January 8, 2014

  Actual Average Record
Temperature  
Mean Temperature 23 °F 30 °F  
Max Temperature 28 °F 39 °F 73 °F (2003)
Min Temperature 17 °F 21 °F -7 °F (1976)
Degree Days  
Heating Degree Days 42 35  
Month to date heating degree days 395 280  
Since 1 July heating degree days 2560 2245  
Cooling Degree Days 0 0  
Month to date cooling degree days 0 0  
Year to date cooling degree days 0 0  
Moisture  
Dew Point 14 °F    
Average Humidity 67    
Maximum Humidity 81    
Minimum Humidity 53    
Precipitation  
Precipitation 0.00 in 0.03 in 0.36 in (2008)
Month to date precipitation T 0.24  
Year to date precipitation T 0.24  
Sea Level Pressure  
Sea Level Pressure 30.31 in    
Wind  
Wind Speed 9 mph (ENE)    
Max Wind Speed 15 mph    
Max Gust Speed 19 mph    
Visibility 10 miles    
Events      
T = Trace of Precipitation, MM = Missing Value Source: NWS Daily Summary

Daily Weather History Graph

Daily Weather History Graph

Search for Another Location

Airport:

Trip Planner

Search our weather history database for the weather conditions in past years. The results will help you decide how hot, cold, wet, or windy it might be!

Date:

Astronomy

Jan. 08, 2014 Rise Set
Actual Time 7:37 AM CST 5:14 PM CST
Civil Twilight 7:08 AM CST 5:43 PM CST
Nautical Twilight 6:34 AM CST 6:16 PM CST
Astronomical Twilight 6:02 AM CST 6:48 PM CST
Moon 12:05 PM CST (1/8) 12:46 AM CST (1/8)
Length of Visible Light 10h 35m
Length of Day
9h 36m
First Quarter, 56% of the Moon is Illuminated
Jan 8
First Quarter
Jan 15
Full
Jan 23
Last Quarter
Jan 30
New
Feb 6
First Quarter

Hourly Weather History & Observations

Time (CST) Temp. Windchill Dew Point Humidity Pressure Visibility Wind Dir Wind Speed Gust Speed Precip Events Conditions
12:53 AM 27.0 °F - 19.0 °F 72% 30.22 in 10.0 mi Calm Calm - N/A   Clear
1:53 AM 25.0 °F 19.3 °F 19.0 °F 78% 30.22 in 10.0 mi NE 4.6 mph - N/A   Clear
2:53 AM 26.1 °F 20.5 °F 19.0 °F 75% 30.24 in 10.0 mi ENE 4.6 mph - N/A   Clear
3:53 AM 26.1 °F 21.9 °F 19.9 °F 78% 30.25 in 10.0 mi East 3.5 mph - N/A   Partly Cloudy
4:53 AM 25.0 °F 16.3 °F 19.0 °F 78% 30.25 in 10.0 mi ENE 8.1 mph - N/A   Clear
5:53 AM 24.1 °F 14.4 °F 17.1 °F 75% 30.25 in 10.0 mi NE 9.2 mph - N/A   Scattered Clouds
6:53 AM 23.0 °F 14.7 °F 15.1 °F 72% 30.27 in 10.0 mi ENE 6.9 mph - N/A   Clear
7:53 AM 21.9 °F 11.7 °F 14.0 °F 72% 30.29 in 10.0 mi NE 9.2 mph - N/A   Partly Cloudy
8:53 AM 21.9 °F 11.7 °F 12.0 °F 66% 30.32 in 10.0 mi ENE 9.2 mph - N/A   Clear
9:53 AM 24.1 °F 14.4 °F 12.0 °F 60% 30.35 in 10.0 mi ENE 9.2 mph - N/A   Clear
10:53 AM 25.0 °F 14.8 °F 12.9 °F 60% 30.35 in 10.0 mi ENE 10.4 mph - N/A   Clear
11:53 AM 27.0 °F 19.5 °F 14.0 °F 58% 30.33 in 10.0 mi ENE 6.9 mph - N/A   Clear
12:53 PM 28.0 °F 17.5 °F 14.0 °F 56% 30.31 in 10.0 mi ENE 12.7 mph - N/A   Clear
1:53 PM 28.0 °F 18.6 °F 14.0 °F 56% 30.30 in 10.0 mi ENE 10.4 mph - N/A   Clear
2:53 PM 27.0 °F 16.1 °F 14.0 °F 58% 30.31 in 10.0 mi NE 12.7 mph - N/A   Clear
3:53 PM 27.0 °F 18.0 °F 14.0 °F 58% 30.33 in 10.0 mi ENE 9.2 mph - N/A   Clear
4:53 PM 24.1 °F 14.4 °F 12.9 °F 62% 30.34 in 10.0 mi East 9.2 mph - N/A   Clear
5:53 PM 21.9 °F 10.4 °F 12.0 °F 66% 30.35 in 10.0 mi ENE 11.5 mph - N/A   Clear
6:53 PM 19.9 °F 8.6 °F 10.9 °F 68% 30.36 in 10.0 mi ENE 10.4 mph - N/A   Clear
7:53 PM 19.9 °F 7.9 °F 12.0 °F 71% 30.37 in 10.0 mi ENE 11.5 mph - N/A   Clear
8:53 PM 19.0 °F 6.1 °F 10.0 °F 68% 30.38 in 10.0 mi East 12.7 mph - N/A   Clear
9:53 PM 19.0 °F 8.2 °F 10.9 °F 71% 30.38 in 10.0 mi ENE 9.2 mph - N/A   Clear
10:53 PM 18.0 °F 6.1 °F 10.9 °F 74% 30.37 in 10.0 mi ENE 10.4 mph - N/A   Mostly Cloudy
11:53 PM 17.1 °F 5.8 °F 10.0 °F 74% 30.36 in 10.0 mi ENE 9.2 mph - N/A   Overcast